www.pogodaiklimat.ru

Погода и климат >> Архив погоды >> Россия >> Хабаровский край >> Софийский Прииск


АРХИВ ПОГОДЫ в Софийском Прииске

Время (UTC), дата Ветер
(напр.,м/с)
 
Видим.   Явления Облачность Т
(С)
Тd
(С)
f
(%)
Тe
(С)
Тes
(С)
Комфортность P
(гПа)
Po
(гПа)
Тmin
(С)
Tmax
(С)
R
(мм)
R24
(мм)
S
(см)
12 13.05 В 3 50 км {ливн. осадки} 10/9 1000 м
[Cb cap Ci fib]
+13.5 +1.8 45 +13 +13 1007.8 906.3
15 13.05 ЮВ 2 50 км 4/0
[Ci sp]
+6.1 +0.8 69 +4 +4 1010.9 906.5
18 13.05 В 2 50 км 5/0
[Ci fib]
+3.4 -0.3 77 +1 +1 1011.7 906.3
21 13.05 В 1 50 км 3/0
[Ci sp]
+5.5 +1.0 73 +5 +6 1011.7 907.1 +0.6
00 14.05 Ю 2 50 км 10/8 1000 м
[Cb cap Ci sp]
+18.1 +0.1 30 +19 +20 1006.6 906.6
03 14.05 З 6 50 км 10/10 1000 м
[Cb cap]
+16.2 +3.9 44 +15 +15 1006.6 906.2
06 14.05 В 3 20 км гроза, ливневой дождь 10/10 600 м
[Cb cap]
+11.9 +6.9 71 +10 +10 1008.2 906.2
09 14.05 З 3 50 км {гроза, ливн. осадки} 10/5 1000 м
[Cb cap Ci fib]
+15.7 +5.6 51 +15 +16 1005.4 904.9 +20.4 1
12 14.05 ЮЗ 2 50 км {гроза, ливн. осадки} 10/9 1000 м
[Cb cap Ci fib]
+11.1 +5.6 69 +10 +10 1009.4 907.0
15 14.05 В 1 50 км 9/8 1000 м
[Cb cap Ci fib]
+6.3 +5.1 92 +5 +5 1010.7 906.5
18 14.05 В 3 50 км 10/8 1000 м
[Cb cap Ci fib]
+3.4 +2.7 95 -1 -1 1011.5 906.1
21 14.05 В 2 50 км слаб. ливневой дождь 10/8 1000 м
[Cb cap Ci fib]
+4.5 +2.8 89 +2 +2 1010.4 905.5 +2.1 0.0
00 15.05 З 2 10 км слаб. ливневой дождь 10/10 600 м
[Cb cap]
+4.7 +3.5 92 +2 +2 1011.4 906.5
03 15.05 В 4 20 км слаб. ливневой дождь 10/8 600 м
[Cb cap Ac As]
+5.1 +2.9 86 +1 +2 1009.9 905.4
06 15.05 СВ 2 20 км в посл. час ливневой дождь 10/8 600 м
[Cb cap As op Ci sp]
+7.3 +5.1 86 +5 +6 1007.3 903.7
09 15.05 ЮВ 3 50 км 10/8 600 м
[Cb cap As op Ci sp]
+10.3 +2.7 59 +9 +9 1005.2 902.8 +11.9 7
12 15.05 В 2 50 км 10/10 600 м
[Cb cap]
+5.8 +2.7 80 +3 +3 1008.0 903.8
15 15.05 В 2 50 км {ливн. осадки} 8/3 600 м
[Cb cap Ac cuf]
+5.6 +2.2 79 +3 +3 1007.6 903.4
18 15.05 СВ 2 10 км слаб. ливневой дождь 10/10 600 м
[Cb cap]
+3.7 +2.8 94 +1 +1 1007.9 901.7
21 15.05 В 3 50 км слаб. ливневой дождь 10/10 600 м
[Cb cap]
+4.4 +2.9 90 +1 +1 1011.1 902.3 +2.8 8
00 16.05 В 3 50 км слаб. ливневой дождь 10/10 600 м
[Cb cap]
+4.1 +2.6 90 0 0 1006.6 902.0
03 16.05 В 6 50 км в посл. час ливневой дождь 10/10 1000 м
[Cb cap]
+8.7 +5.0 78 +5 +5 1002.3 899.8
06 16.05 В 5 50 км {ливн. осадки} 10/10 1000 м
[Cb cap]
+10.7 +4.8 67 +8 +8 999.9 898.4
09 16.05 В 2 10 км слаб. ливневой дождь 10/10 600 м
[Cb cap]
+7.1 +5.9 92 +5 +5 1002.8 899.6 +12.7 19
12 16.05 В 1 10 км слаб. ливневой дождь 10/10 600 м
[Cb cap]
+5.9 +4.8 93 +5 +5 1004.0 900.4
15 16.05 В 2 50 км {ливн. осадки} 10/10 1000 м
[Cb cap]
+4.5 +3.3 92 +2 +2 1004.9 900.6
18 16.05 СВ 1 50 км {ливн. осадки} 10/10 1000 м
[Cb cap]
+3.8 +2.3 90 +2 +2 1004.8 900.3
21 16.05 ЮВ 3 10 км слаб. ливневой дождь 10/10 600 м
[Cb cap]
+5.2 +2.5 83 +2 +2 1004.3 900.3 +3.1 5
00 17.05 ЮВ 4 50 км {ливн. осадки} 9/9 1000 м
[Cb cap]
+10.8 +1.3 52 +9 +9 1001.0 899.3
03 17.05 Ю 5 50 км {ливн. осадки} 10/10 1000 м
[Cb cap]
+8.0 +2.7 69 +4 +4 1002.4 899.5
06 17.05 Ю 4 50 км 10/10 1000 м
[Cb cap]
+9.4 +2.6 62 +7 +7 1002.1 899.7
09 17.05 СВ 3 50 км слаб. ливневой дождь 10/10 1000 м
[Cb cap]
+6.1 +4.3 88 +3 +3 1004.5 900.8 +12.3 3
12 17.05 В 1 50 км {ливн. осадки} 8/8 1000 м
[Cb cap Ci sp]
+4.4 +3.2 92 +3 +3 1007.1 902.5
15 17.05 В 1 50 км 8/8 1000 м
[Cb cap Ci sp]
+1.7 +1.0 95 -0 -0 1007.4 901.8
18 17.05 В 4 50 км 10/10 1000 м
[Cb cap]
+3.5 +1.4 86 -1 -1 1004.6 900.0
21 17.05 В 2 50 км слаб. ливневой дождь 10/10 1000 м
[Cb cap]
+5.1 +3.3 88 +2 +2 1002.0 898.2 +1.5 1
00 18.05 ЮЗ 3 50 км {ливн. осадки} 8/8 1000 м
[Cb cap]
+8.5 +2.7 67 +6 +8 1001.8 899.2
03 18.05 З 4 50 км в посл. час ливневой дождь 10/10 1000 м
[Cb cap]
+8.3 +1.7 63 +5 +5 1001.8 899.2
06 18.05 ЮЗ 6
{11}
50 км {ливн. осадки} 10/9 1000 м
[Cb cap Ci fib]
+12.1 -1.1 40 +10 +10 999.8 898.5
09 18.05 ЮЗ 6
{13}
50 км 10/8 1000 м
[Cb cap Ci sp]
+10.5 -4.0 36 +8 +8 1000.0 898.2 +12.4 0.0
12 18.05 ЮЗ 1 50 км 8/8 1000 м
[Cb cap]
+4.6 -1.6 64 +4 +4 1004.0 899.7
15 18.05 ЮВ 3 50 км в посл. час ливневой дождь 10/10 1000 м
[Cb cap]
+3.3 +0.5 82 -1 -1 1005.1 900.4
18 18.05 СВ 1 50 км {ливн. осадки} 8/8 1000 м
[Cb cap]
+0.2 -0.9 92 -2 -2 1007.8 901.6
21 18.05 З 1 50 км 10/10 1000 м
[Cb cap]
+3.4 +0.8 83 +2 +2 1008.0 903.0 -0.0 0.6
00 19.05 З 4 50 км слаб. ливневой дождь 10/10 1000 м
[Cb cap]
+6.3 +2.0 74 +3 +3 1008.6 904.5
03 19.05 З 4 50 км {ливн. осадки} 10/10 1000 м
[Cb cap]
+9.3 +3.2 66 +7 +7 1007.3 904.5
06 19.05 З 4 50 км {ливн. осадки} 10/9 1000 м
[Cb cap Ci sp]
+11.3 +1.9 52 +9 +10 1006.5 904.4
09 19.05 ЮЗ 3 50 км 10/8 1000 м
[Cb cap Ci sp]
+11.9 +0.6 46 +11 +11 1005.9 904.0 +13.3
12 19.05 ЮВ 2 50 км 9/8 1000 м
[Cu Sc Ci sp]
+5.7 +1.7 75 +3 +3 1009.2 904.8
15 19.05 В 1 50 км 10/10 1000 м
[Cb cap]
+2.9 +0.5 84 +1 +1 1009.4 904.0
18 19.05 СВ 3 50 км 10/10 1000 м
[Cb cap]
+3.8 +0.9 81 0 0 1005.7 901.1
21 19.05 В 3 50 км слаб. дождь 10/3 1000 м
[Cu Sc As op]
+6.4 +2.9 78 +3 +4 1002.4 899.0 +2.3 0.5
00 20.05 В 5
{13}
20 км слаб. дождь 10/3 1000 м
[Cu hum As op]
+6.7 +3.4 79 +3 +3 1000.3 897.3
03 20.05 В 5
{14}
20 км слаб. дождь 10/3 1000 м
[Cu hum As op]
+7.7 +3.1 73 +4 +5 998.3 895.9
06 20.05 В 5
{12}
10 км слаб. дождь 10/0
[As op]
+5.5 +3.2 85 +1 +2 996.8 893.7
09 20.05 В 6
{15}
50 км {дождь} 10/8 1000 м
[Sc As op]
+6.9 +2.8 75 +3 +3 995.7 893.2 +7.8 5

 

Местоположение метеостанции Софийский Прииск (Хабаровский край, Россия): широта 52.27 долгота 133.90 высота над уровнем моря 902 м.

В архиве по умолчанию представлена погода в Софийском Прииске за последнюю неделю. Архивные данные за месяц целиком и за предыдущие месяцы, начиная с января 2011 года, Вы можете получить, выбрав интересующий диапазон дат из раскрывающегося списка и нажав кнопку "Ввод!".


*Определитесь, кто Вы:
робот инопланетянин человек

Внимание! Время в таблицах - всемирное. Для получения местного времени необходимо прибавить поправку, которая равна 10 ч.

Смотрите также архив погоды в соседних городах и на ближайших метеорологических станциях:

Погода в Усть-Умальте (Хабаровский край, Россия) (86 км)
Погода в Экимчане (Амурская область, Россия) (113 км)
Погода в Хуларине (Хабаровский край, Россия) (121 км)
Погода в Веселой Горке (Хабаровский край, Россия) (129 км)
Погода в Чегдомыне (Хабаровский край, Россия) (140 км)
Погода в Стойбе (Амурская область, Россия) (160 км)
Погода в Бурукане (Хабаровский край, Россия) (166 км)
Погода в Им. Полины Осипенко (Хабаровский край, Россия) (177 км)
Погода в Чекунде (Хабаровский край, Россия) (195 км)
Погода в Февральске (Амурская область, Россия) (212 км)

Пояснения к столбцам:

Ветер - указаны скорость ветра в м/с - средняя за 10 мин, порывы в срок и между сроками (в фигурных скобках) и направление, откуда дует ветер: С - северный, СВ - северо-восточный, В - восточный, ЮВ - юго-восточный, Ю - южный, ЮЗ - юго-западный, З - западный, СЗ - северо-западный.
Видимость - горизонтальная дальность видимости в метрах или километрах. При видимости от 1 до 10 км при отсутствии осадков обычно наблюдается дымка, при ухудшении видимости до 1 км и менее - туман. В сухую погоду видимость может ухудшаться дымом, пылью или мглою.
Явления - указаны атмосферные явления, наблюдавшиеся в срок или в последний час перед сроком; фигурными скобками обозначены явления, наблюдавшиеся между сроками (за 1-3 часа до срока); квадратными скобками обозначены град или гололедные отложения с указанием их диаметра в мм.
Облачность - указаны через наклонную черту общая и нижняя облачность в баллах и высота нижней границы облаков в метрах; квадратными скобками обозначены формы облаков: Ci - перистые, Cs - перисто-слоистые, Cc - перисто-кучевые, Ac - высококучевые, As - высокослоистые, Sc - слоисто-кучевые, Ns - слоисто-дождевые, Cu - кучевые, Cb - кучево-дождевые. Подробнее классификацию облаков см. в Атласе облаков (PDF).
T - Температура воздуха - температура, измеренная на высоте 2 м над землей.
Td - Температура точки росы - температура, при понижении до которой содержащийся в воздухе водяной пар достигнет насыщения.
f - Относительная влажность воздуха - влажноcть воздуха, измеренная на высоте 2 м над землей.
Te - Эффективная температура - температура, которую ощущает одетый по сезону человек в тени. Характеристика душности погоды. При расчете учитывается влияние влажности воздуха и скорости ветра на теплоощущения человека.
Tes - Эффективная температура на солнце - температура, которую ощущает человек, с поправкой на солнечный нагрев. Характеристика знойности погоды. Зависит от высоты солнца над горизонтом, облачности и скорости ветра. Ночью, в пасмурную погоду, а также при ветре 12 м/с и более поправка равна нулю.
P - Атмосферное давление - приведенное к уровню моря атмосферное давление.
Po - Атмосферное давление - измеренное на уровне метеостанции атмосферное давление.
Tmin - Минимальная температура - минимум температуры воздуха на высоте 2 м над землей.
Tmax - Максимальная температура - максимум температуры воздуха на высоте 2 м над землей.
R - Количество осадков - Количество выпавших осадков за период времени, мм. При наведении курсора мыши на число - период времени, за который выпало указанное количество осадков.
R24 - Количество осадков - Количество выпавших осадков за 24 часа, мм.
S - Снежный покров - Высота снежного покрова, см. При наведении курсора мыши на число - состояние снежного покрова и степень покрытия местности в баллах.